Time,TemperatureF,DewpointF,PressureIn,WindDirection,WindDirectionDegrees,WindSpeedMPH,WindSpeedGustMPH,Humidity,HourlyPrecipIn,Conditions,Clouds,dailyrainin,SoftwareType,DateUTC
2013-02-21 00:00:00,35.6,24.3,29.80,WSW,248,8.3,12.8,63,0.00,,,0.00,WUHU216HW,2013-02-21 07:00:00,
2013-02-21 00:05:00,35.5,24.5,29.80,West,270,15.0,15.0,64,0.00,,,0.00,WUHU216HW,2013-02-21 07:05:00,
2013-02-21 00:10:00,35.5,24.5,29.80,WNW,293,8.9,15.0,64,0.00,,,0.00,WUHU216HW,2013-02-21 07:10:00,
2013-02-21 00:15:00,35.5,24.8,29.80,WNW,293,11.9,15.0,65,0.00,,,0.00,WUHU216HW,2013-02-21 07:15:00,
2013-02-21 00:20:00,35.5,24.8,29.80,WSW,248,5.4,14.1,65,0.00,,,0.00,WUHU216HW,2013-02-21 07:20:00,
2013-02-21 00:25:00,35.5,25.6,29.79,West,270,6.5,15.0,67,0.00,,,0.00,WUHU216HW,2013-02-21 07:25:00,
2013-02-21 00:30:00,35.3,25.4,29.79,WSW,248,8.7,15.4,67,0.00,,,0.00,WUHU216HW,2013-02-21 07:30:00,
2013-02-21 00:35:00,35.1,25.2,29.80,WSW,248,11.2,15.4,67,0.00,,,0.00,WUHU216HW,2013-02-21 07:35:00,
2013-02-21 00:40:00,34.9,25.4,29.80,SW,225,4.7,12.3,68,0.00,,,0.00,WUHU216HW,2013-02-21 07:40:00,
2013-02-21 00:45:00,34.7,25.6,29.80,West,270,5.4,12.3,69,0.00,,,0.00,WUHU216HW,2013-02-21 07:45:00,
2013-02-21 00:50:00,34.6,25.4,29.81,WNW,293,5.1,9.4,69,0.00,,,0.00,WUHU216HW,2013-02-21 07:50:00,
2013-02-21 00:55:00,34.4,25.9,29.80,SW,225,8.9,10.5,71,0.00,,,0.00,WUHU216HW,2013-02-21 07:55:00,
2013-02-21 01:00:00,34.4,26.2,29.80,West,270,12.5,13.4,72,0.00,,,0.00,WUHU216HW,2013-02-21 08:00:00,
2013-02-21 01:05:00,34.2,25.8,29.80,WNW,293,6.7,13.4,71,0.00,,,0.00,WUHU216HW,2013-02-21 08:05:00,
2013-02-21 01:10:00,34.2,26.0,29.80,WSW,248,11.9,12.8,72,0.00,,,0.00,WUHU216HW,2013-02-21 08:10:00,
2013-02-21 01:15:00,34.2,25.8,29.79,West,270,8.3,14.8,71,0.00,,,0.00,WUHU216HW,2013-02-21 08:15:00,
2013-02-21 01:20:00,34.4,25.9,29.80,WSW,248,14.1,14.8,71,0.00,,,0.00,WUHU216HW,2013-02-21 08:20:00,
2013-02-21 01:25:00,34.6,26.1,29.80,WSW,248,8.7,14.3,71,0.00,,,0.00,WUHU216HW,2013-02-21 08:25:00,
2013-02-21 01:30:00,34.9,26.1,29.80,WSW,248,9.8,14.1,70,0.00,,,0.00,WUHU216HW,2013-02-21 08:30:00,
2013-02-21 01:35:00,35.1,25.9,29.80,SW,225,10.3,13.0,69,0.00,,,0.00,WUHU216HW,2013-02-21 08:35:00,
2013-02-21 01:40:00,35.3,25.7,29.80,SW,225,7.6,14.5,68,0.00,,,0.00,WUHU216HW,2013-02-21 08:40:00,
2013-02-21 01:45:00,35.3,25.4,29.81,SW,225,9.6,14.5,67,0.00,,,0.00,WUHU216HW,2013-02-21 08:45:00,
2013-02-21 01:50:00,35.5,25.6,29.81,WSW,248,11.0,13.9,67,0.00,,,0.00,WUHU216HW,2013-02-21 08:50:00,
2013-02-21 01:55:00,35.5,25.2,29.82,SW,225,10.5,13.2,66,0.00,,,0.00,WUHU216HW,2013-02-21 08:55:00,
2013-02-21 02:00:00,35.5,24.8,29.82,SW,225,6.3,13.2,65,0.00,,,0.00,WUHU216HW,2013-02-21 09:00:00,
2013-02-21 02:05:00,35.6,24.7,29.82,WSW,248,11.4,18.8,64,0.00,,,0.00,WUHU216HW,2013-02-21 09:05:00,
2013-02-21 02:10:00,35.6,24.3,29.82,SW,225,9.8,18.8,63,0.00,,,0.00,WUHU216HW,2013-02-21 09:10:00,
2013-02-21 02:15:00,35.6,24.3,29.82,NW,315,6.9,16.1,63,0.00,,,0.00,WUHU216HW,2013-02-21 09:15:00,
2013-02-21 02:20:00,35.5,23.8,29.82,SW,225,3.6,16.1,62,0.00,,,0.00,WUHU216HW,2013-02-21 09:20:00,
2013-02-21 02:25:00,35.3,23.9,29.82,WSW,248,9.8,17.2,63,0.00,,,0.00,WUHU216HW,2013-02-21 09:25:00,
2013-02-21 02:30:00,35.1,24.1,29.82,West,270,16.6,18.6,64,0.00,,,0.00,WUHU216HW,2013-02-21 09:30:00,
2013-02-21 02:35:00,34.9,24.3,29.82,WSW,248,8.7,18.6,65,0.00,,,0.00,WUHU216HW,2013-02-21 09:35:00,
2013-02-21 02:40:00,34.6,24.3,29.82,SW,225,9.6,15.0,66,0.00,,,0.00,WUHU216HW,2013-02-21 09:40:00,
2013-02-21 02:45:00,34.4,24.1,29.81,WSW,248,7.8,15.0,66,0.00,,,0.00,WUHU216HW,2013-02-21 09:45:00,
2013-02-21 02:50:00,34.2,24.3,29.82,SW,225,14.3,16.6,67,0.00,,,0.00,WUHU216HW,2013-02-21 09:50:00,
2013-02-21 02:55:00,33.8,23.9,29.82,West,270,13.4,16.6,67,0.00,,,0.00,WUHU216HW,2013-02-21 09:55:00,
2013-02-21 03:00:00,33.7,24.5,29.81,SW,225,7.6,16.3,69,0.00,,,0.00,WUHU216HW,2013-02-21 10:00:00,
2013-02-21 03:05:00,33.5,24.3,29.81,SW,225,10.3,16.3,69,0.00,,,0.00,WUHU216HW,2013-02-21 10:05:00,
2013-02-21 03:10:00,33.1,24.4,29.81,WSW,248,6.9,13.4,70,0.00,,,0.00,WUHU216HW,2013-02-21 10:10:00,
2013-02-21 03:15:00,33.1,24.0,29.82,SSW,203,7.6,17.7,69,0.00,,,0.00,WUHU216HW,2013-02-21 10:15:00,
2013-02-21 03:20:00,32.9,24.2,29.81,SW,225,12.8,17.7,70,0.00,,,0.00,WUHU216HW,2013-02-21 10:20:00,
2013-02-21 03:25:00,32.8,23.7,29.82,SSW,203,10.5,13.9,69,0.00,,,0.00,WUHU216HW,2013-02-21 10:25:00,
2013-02-21 03:30:00,32.8,23.7,29.82,WSW,248,9.4,13.9,69,0.00,,,0.00,WUHU216HW,2013-02-21 10:30:00,
2013-02-21 03:35:00,32.6,23.5,29.83,WSW,248,5.1,12.8,69,0.00,,,0.00,WUHU216HW,2013-02-21 10:35:00,
2013-02-21 03:40:00,32.4,23.4,29.82,WSW,248,11.2,11.6,69,0.00,,,0.00,WUHU216HW,2013-02-21 10:40:00,
2013-02-21 03:45:00,32.2,23.6,29.83,SW,225,9.4,11.4,70,0.00,,,0.00,WUHU216HW,2013-02-21 10:45:00,
2013-02-21 03:50:00,32.2,23.6,29.83,WSW,248,9.2,12.1,70,0.00,,,0.00,WUHU216HW,2013-02-21 10:50:00,
2013-02-21 03:55:00,32.0,23.0,29.82,SW,225,7.2,12.1,69,0.00,,,0.00,WUHU216HW,2013-02-21 10:55:00,
2013-02-21 04:00:00,32.0,23.0,29.83,SW,225,5.8,9.6,69,0.00,,,0.00,WUHU216HW,2013-02-21 11:00:00,
2013-02-21 04:05:00,31.9,22.5,29.83,WSW,248,5.4,11.2,68,0.00,,,0.00,WUHU216HW,2013-02-21 11:05:00,
2013-02-21 04:10:00,31.9,22.5,29.84,SW,225,8.7,11.2,68,0.00,,,0.00,WUHU216HW,2013-02-21 11:10:00,
2013-02-21 04:15:00,31.7,22.3,29.84,SSW,203,5.6,9.2,68,0.00,,,0.00,WUHU216HW,2013-02-21 11:15:00,
2013-02-21 04:20:00,31.7,22.3,29.84,WSW,248,7.6,10.3,68,0.00,,,0.00,WUHU216HW,2013-02-21 11:20:00,
2013-02-21 04:25:00,31.5,22.1,29.85,WSW,248,1.1,10.3,68,0.00,,,0.00,WUHU216HW,2013-02-21 11:25:00,
2013-02-21 04:30:00,31.3,21.6,29.86,NNE,23,0.4,6.9,67,0.00,,,0.00,WUHU216HW,2013-02-21 11:30:00,
2013-02-21 04:35:00,31.3,21.6,29.86,ENE,68,0.2,3.6,67,0.00,,,0.00,WUHU216HW,2013-02-21 11:35:00,
2013-02-21 04:40:00,31.0,21.2,29.86,SW,225,4.5,4.5,67,0.00,,,0.00,WUHU216HW,2013-02-21 11:40:00,
2013-02-21 04:45:00,31.0,21.2,29.86,SW,225,8.9,8.9,67,0.00,,,0.00,WUHU216HW,2013-02-21 11:45:00,
2013-02-21 04:50:00,31.1,21.8,29.86,SW,225,4.7,12.8,68,0.00,,,0.00,WUHU216HW,2013-02-21 11:50:00,
2013-02-21 04:55:00,31.1,21.8,29.85,SW,225,9.8,12.8,68,0.00,,,0.00,WUHU216HW,2013-02-21 11:55:00,
2013-02-21 05:00:00,31.3,22.0,29.86,SW,225,2.9,12.1,68,0.00,,,0.00,WUHU216HW,2013-02-21 12:00:00,
2013-02-21 05:05:00,31.3,21.6,29.86,WSW,248,2.0,12.1,67,0.00,,,0.00,WUHU216HW,2013-02-21 12:05:00,
2013-02-21 05:10:00,31.3,21.6,29.87,NW,315,2.5,10.1,67,0.00,,,0.00,WUHU216HW,2013-02-21 12:10:00,
2013-02-21 05:15:00,31.3,21.6,29.88,WNW,293,1.3,7.2,67,0.00,,,0.00,WUHU216HW,2013-02-21 12:15:00,
2013-02-21 05:20:00,31.3,21.6,29.87,West,270,3.6,4.7,67,0.00,,,0.00,WUHU216HW,2013-02-21 12:20:00,
2013-02-21 05:25:00,31.0,20.9,29.87,SSW,203,1.8,4.0,66,0.00,,,0.00,WUHU216HW,2013-02-21 12:25:00,
2013-02-21 05:30:00,30.8,21.1,29.87,SW,225,4.0,5.1,67,0.00,,,0.00,WUHU216HW,2013-02-21 12:30:00,
2013-02-21 05:35:00,30.6,20.9,29.87,SSW,203,4.5,5.1,67,0.00,,,0.00,WUHU216HW,2013-02-21 12:35:00,
2013-02-21 05:40:00,30.6,20.9,29.87,SW,225,4.7,5.6,67,0.00,,,0.00,WUHU216HW,2013-02-21 12:40:00,
2013-02-21 05:45:00,30.4,20.7,29.87,SSW,203,3.6,7.4,67,0.00,,,0.00,WUHU216HW,2013-02-21 12:45:00,
2013-02-21 05:50:00,30.2,20.2,29.87,WNW,293,1.6,7.4,66,0.00,,,0.00,WUHU216HW,2013-02-21 12:50:00,
2013-02-21 05:55:00,30.4,20.7,29.89,NE,45,4.7,5.4,67,0.00,,,0.00,WUHU216HW,2013-02-21 12:55:00,
2013-02-21 06:00:00,30.4,20.7,29.89,ESE,113,1.1,5.4,67,0.00,,,0.00,WUHU216HW,2013-02-21 13:00:00,
2013-02-21 06:05:00,30.2,20.5,29.88,West,270,1.6,3.4,67,0.00,,,0.00,WUHU216HW,2013-02-21 13:05:00,
2013-02-21 06:10:00,29.9,20.2,29.89,SSE,158,2.5,4.5,67,0.00,,,0.00,WUHU216HW,2013-02-21 13:10:00,
2013-02-21 06:15:00,29.9,20.2,29.89,SSE,158,2.5,4.5,67,0.00,,,0.00,WUHU216HW,2013-02-21 13:15:00,
2013-02-21 06:20:00,29.9,20.2,29.89,SSW,203,4.3,5.1,67,0.00,,,0.00,WUHU216HW,2013-02-21 13:20:00,
2013-02-21 06:25:00,29.9,20.2,29.89,SSW,203,4.0,5.1,67,0.00,,,0.00,WUHU216HW,2013-02-21 13:25:00,
2013-02-21 06:30:00,29.9,20.2,29.88,SW,225,6.5,7.8,67,0.00,,,0.00,WUHU216HW,2013-02-21 13:30:00,
2013-02-21 06:35:00,29.9,20.2,29.88,WSW,248,2.9,7.8,67,0.00,,,0.00,WUHU216HW,2013-02-21 13:35:00,
2013-02-21 06:40:00,29.9,20.2,29.89,WSW,248,2.0,6.5,67,0.00,,,0.00,WUHU216HW,2013-02-21 13:40:00,
2013-02-21 06:45:00,30.1,20.3,29.90,SE,135,1.1,7.8,67,0.00,,,0.00,WUHU216HW,2013-02-21 13:45:00,
2013-02-21 06:50:00,30.1,20.3,29.91,NNE,23,1.8,7.8,67,0.00,,,0.00,WUHU216HW,2013-02-21 13:50:00,
2013-02-21 06:55:00,30.1,20.3,29.91,SSW,203,0.7,2.7,67,0.00,,,0.00,WUHU216HW,2013-02-21 13:55:00,
2013-02-21 07:00:00,29.9,20.2,29.92,SW,225,1.8,2.7,67,0.00,,,0.00,WUHU216HW,2013-02-21 14:00:00,
2013-02-21 07:05:00,30.1,20.3,29.90,WSW,248,6.3,7.6,67,0.00,,,0.00,WUHU216HW,2013-02-21 14:05:00,
2013-02-21 07:10:00,30.6,21.2,29.90,SSW,203,11.9,11.9,68,0.00,,,0.00,WUHU216HW,2013-02-21 14:10:00,
2013-02-21 07:15:00,31.0,21.2,29.89,SW,225,11.6,15.0,67,0.00,,,0.00,WUHU216HW,2013-02-21 14:15:00,
2013-02-21 07:20:00,31.7,21.6,29.89,SW,225,9.6,16.8,66,0.00,,,0.00,WUHU216HW,2013-02-21 14:20:00,
2013-02-21 07:25:00,32.6,22.4,29.89,WSW,248,9.8,16.8,66,0.00,,,0.00,WUHU216HW,2013-02-21 14:25:00,
2013-02-21 07:30:00,33.5,22.5,29.90,SSW,203,5.4,13.4,64,0.00,,,0.00,WUHU216HW,2013-02-21 14:30:00,
2013-02-21 07:35:00,34.2,22.9,29.90,North,0,8.3,13.2,63,0.00,,,0.00,WUHU216HW,2013-02-21 14:35:00,
2013-02-21 07:40:00,34.6,22.9,29.91,SW,225,2.2,10.3,62,0.00,,,0.00,WUHU216HW,2013-02-21 14:40:00,
2013-02-21 07:45:00,34.6,22.9,29.93,ESE,113,1.6,10.3,62,0.00,,,0.00,WUHU216HW,2013-02-21 14:45:00,
2013-02-21 07:50:00,34.9,23.2,29.93,SSW,203,0.7,7.6,62,0.00,,,0.00,WUHU216HW,2013-02-21 14:50:00,
2013-02-21 07:55:00,35.6,23.9,29.94,SSW,203,1.6,2.2,62,0.00,,,0.00,WUHU216HW,2013-02-21 14:55:00,
2013-02-21 08:00:00,35.8,23.8,29.94,SSE,158,3.4,5.4,61,0.00,,,0.00,WUHU216HW,2013-02-21 15:00:00,
2013-02-21 08:05:00,36.0,24.0,29.95,SSW,203,2.0,5.4,61,0.00,,,0.00,WUHU216HW,2013-02-21 15:05:00,
2013-02-21 08:10:00,36.4,23.9,29.95,SSW,203,4.0,4.9,60,0.00,,,0.00,WUHU216HW,2013-02-21 15:10:00,
2013-02-21 08:15:00,36.4,23.9,29.95,WSW,248,9.2,11.4,60,0.00,,,0.00,WUHU216HW,2013-02-21 15:15:00,
2013-02-21 08:20:00,36.2,23.3,29.95,WSW,248,7.2,11.4,59,0.00,,,0.00,WUHU216HW,2013-02-21 15:20:00,
2013-02-21 08:25:00,36.4,23.4,29.95,SSW,203,8.5,12.8,59,0.00,,,0.00,WUHU216HW,2013-02-21 15:25:00,
2013-02-21 08:30:00,36.4,22.6,29.95,West,270,9.2,12.8,57,0.00,,,0.00,WUHU216HW,2013-02-21 15:30:00,
2013-02-21 08:35:00,36.9,23.5,29.96,SW,225,3.4,12.3,58,0.00,,,0.00,WUHU216HW,2013-02-21 15:35:00,
2013-02-21 08:40:00,37.3,23.9,29.96,WSW,248,6.5,9.6,58,0.00,,,0.00,WUHU216HW,2013-02-21 15:40:00,
2013-02-21 08:45:00,37.4,23.1,29.97,SSW,203,5.1,10.1,56,0.00,,,0.00,WUHU216HW,2013-02-21 15:45:00,
2013-02-21 08:50:00,37.8,23.1,29.97,SW,225,9.2,11.4,55,0.00,,,0.00,WUHU216HW,2013-02-21 15:50:00,
2013-02-21 08:55:00,38.0,22.8,29.97,SW,225,9.2,11.9,54,0.00,,,0.00,WUHU216HW,2013-02-21 15:55:00,
2013-02-21 09:00:00,37.8,22.6,29.97,SW,225,5.4,11.9,54,0.00,,,0.00,WUHU216HW,2013-02-21 16:00:00,
2013-02-21 09:05:00,37.8,22.6,29.96,WSW,248,6.9,13.9,54,0.00,,,0.00,WUHU216HW,2013-02-21 16:05:00,
2013-02-21 09:11:00,38.0,22.3,29.96,WSW,248,7.8,13.9,53,0.00,,,0.00,WUHU216HW,2013-02-21 16:11:00,
2013-02-21 09:16:00,38.3,22.6,29.96,West,270,10.7,15.2,53,0.00,,,0.00,WUHU216HW,2013-02-21 16:16:00,
2013-02-21 09:21:00,38.2,22.5,29.96,WSW,248,8.5,15.2,53,0.00,,,0.00,WUHU216HW,2013-02-21 16:21:00,
2013-02-21 09:26:00,38.5,23.2,29.96,SW,225,10.1,15.0,54,0.00,,,0.00,WUHU216HW,2013-02-21 16:26:00,
2013-02-21 09:31:00,38.9,23.1,29.96,West,270,5.4,13.9,53,0.00,,,0.00,WUHU216HW,2013-02-21 16:31:00,
2013-02-21 09:36:00,39.1,23.3,29.96,West,270,7.4,10.1,53,0.00,,,0.00,WUHU216HW,2013-02-21 16:36:00,
2013-02-21 09:41:00,39.1,23.3,29.96,WSW,248,8.5,10.7,53,0.00,,,0.00,WUHU216HW,2013-02-21 16:41:00,
2013-02-21 09:46:00,39.1,23.3,29.95,West,270,8.5,12.1,53,0.00,,,0.00,WUHU216HW,2013-02-21 16:46:00,
2013-02-21 09:51:00,39.2,23.4,29.95,WNW,293,6.3,12.1,53,0.00,,,0.00,WUHU216HW,2013-02-21 16:51:00,
2013-02-21 09:56:00,39.6,23.3,29.94,WSW,248,6.9,11.4,52,0.00,,,0.00,WUHU216HW,2013-02-21 16:56:00,
2013-02-21 10:01:00,39.8,23.0,29.94,West,270,11.4,14.3,51,0.00,,,0.00,WUHU216HW,2013-02-21 17:01:00,
2013-02-21 10:06:00,40.0,23.2,29.94,WNW,293,6.9,14.3,51,0.00,,,0.00,WUHU216HW,2013-02-21 17:06:00,
2013-02-21 10:11:00,40.1,23.4,29.94,WNW,293,5.1,11.9,51,0.00,,,0.00,WUHU216HW,2013-02-21 17:11:00,
2013-02-21 10:16:00,40.7,24.3,29.94,West,270,1.3,10.3,52,0.00,,,0.00,WUHU216HW,2013-02-21 17:16:00,
2013-02-21 10:21:00,41.4,24.1,29.94,West,270,2.5,9.8,50,0.00,,,0.00,WUHU216HW,2013-02-21 17:21:00,
2013-02-21 10:26:00,41.6,23.8,29.94,WSW,248,7.4,11.4,49,0.00,,,0.00,WUHU216HW,2013-02-21 17:26:00,
2013-02-21 10:31:00,41.9,24.1,29.94,WSW,248,7.6,11.4,49,0.00,,,0.00,WUHU216HW,2013-02-21 17:31:00,
2013-02-21 10:36:00,41.9,24.1,29.93,NNW,338,6.9,14.3,49,0.00,,,0.00,WUHU216HW,2013-02-21 17:36:00,
2013-02-21 10:41:00,42.1,23.8,29.93,West,270,10.7,14.3,48,0.00,,,0.00,WUHU216HW,2013-02-21 17:41:00,
2013-02-21 10:46:00,41.9,24.1,29.94,SW,225,10.3,14.5,49,0.00,,,0.00,WUHU216HW,2013-02-21 17:46:00,
2013-02-21 10:51:00,42.5,24.1,29.94,WSW,248,9.4,14.5,48,0.00,,,0.00,WUHU216HW,2013-02-21 17:51:00,
2013-02-21 10:56:00,42.7,24.8,29.94,SW,225,9.6,13.4,49,0.00,,,0.00,WUHU216HW,2013-02-21 17:56:00,
2013-02-21 11:01:00,43.2,24.9,29.94,NW,315,4.0,13.4,48,0.00,,,0.00,WUHU216HW,2013-02-21 18:01:00,
2013-02-21 11:06:00,43.6,24.6,29.93,WSW,248,8.5,10.7,47,0.00,,,0.00,WUHU216HW,2013-02-21 18:06:00,
2013-02-21 11:11:00,43.4,24.4,29.93,WNW,293,7.8,13.2,47,0.00,,,0.00,WUHU216HW,2013-02-21 18:11:00,
2013-02-21 11:16:00,43.4,23.3,29.93,WNW,293,11.4,15.2,45,0.00,,,0.00,WUHU216HW,2013-02-21 18:16:00,
2013-02-21 11:21:00,43.7,24.2,29.92,WSW,248,3.4,15.2,46,0.00,,,0.00,WUHU216HW,2013-02-21 18:21:00,
2013-02-21 11:26:00,44.1,24.6,29.92,SW,225,11.4,14.3,46,0.00,,,0.00,WUHU216HW,2013-02-21 18:26:00,
2013-02-21 11:31:00,44.5,24.8,29.92,WNW,293,7.6,14.3,46,0.00,,,0.00,WUHU216HW,2013-02-21 18:31:00,
2013-02-21 11:36:00,44.6,24.5,29.92,WSW,248,6.7,15.0,45,0.00,,,0.00,WUHU216HW,2013-02-21 18:36:00,
2013-02-21 11:41:00,45.0,24.9,29.92,West,270,4.7,15.0,45,0.00,,,0.00,WUHU216HW,2013-02-21 18:41:00,
2013-02-21 11:46:00,45.4,24.6,29.92,WSW,248,9.8,14.1,44,0.00,,,0.00,WUHU216HW,2013-02-21 18:46:00,
2013-02-21 11:51:00,45.7,24.4,29.92,WNW,293,9.8,15.2,43,0.00,,,0.00,WUHU216HW,2013-02-21 18:51:00,
2013-02-21 11:56:00,45.5,24.2,29.92,WSW,248,9.2,15.9,43,0.00,,,0.00,WUHU216HW,2013-02-21 18:56:00,
2013-02-21 12:01:00,45.5,24.2,29.92,SW,225,6.7,17.2,43,0.00,,,0.00,WUHU216HW,2013-02-21 19:01:00,
2013-02-21 12:06:00,46.4,25.0,29.92,WSW,248,16.1,17.2,43,0.00,,,0.00,WUHU216HW,2013-02-21 19:06:00,
2013-02-21 12:11:00,46.3,24.3,29.92,WSW,248,8.7,17.7,42,0.00,,,0.00,WUHU216HW,2013-02-21 19:11:00,
2013-02-21 12:16:00,46.3,24.3,29.92,WSW,248,12.3,17.7,42,0.00,,,0.00,WUHU216HW,2013-02-21 19:16:00,
2013-02-21 12:21:00,46.8,24.9,29.92,WSW,248,12.1,16.3,42,0.00,,,0.00,WUHU216HW,2013-02-21 19:21:00,
2013-02-21 12:26:00,46.8,23.8,29.92,WSW,248,11.2,15.7,40,0.00,,,0.00,WUHU216HW,2013-02-21 19:26:00,
2013-02-21 12:31:00,46.6,23.6,29.92,WNW,293,9.8,15.9,40,0.00,,,0.00,WUHU216HW,2013-02-21 19:31:00,
2013-02-21 12:36:00,47.0,24.4,29.92,SW,225,15.7,15.9,41,0.00,,,0.00,WUHU216HW,2013-02-21 19:36:00,
2013-02-21 12:41:00,47.3,24.2,29.91,West,270,4.5,15.7,40,0.00,,,0.00,WUHU216HW,2013-02-21 19:41:00,
2013-02-21 12:46:00,47.5,24.4,29.91,SW,225,13.0,15.7,40,0.00,,,0.00,WUHU216HW,2013-02-21 19:46:00,
2013-02-21 12:51:00,47.5,24.4,29.91,WSW,248,8.7,14.3,40,0.00,,,0.00,WUHU216HW,2013-02-21 19:51:00,
2013-02-21 12:56:00,47.9,24.7,29.90,SW,225,6.5,15.9,40,0.00,,,0.00,WUHU216HW,2013-02-21 19:56:00,
2013-02-21 13:01:00,48.2,24.4,29.90,WSW,248,10.1,15.9,39,0.00,,,0.00,WUHU216HW,2013-02-21 20:01:00,
2013-02-21 13:06:00,48.6,25.4,29.90,West,270,6.3,13.4,40,0.00,,,0.00,WUHU216HW,2013-02-21 20:06:00,
2013-02-21 13:11:00,48.6,24.0,29.90,South,180,10.5,12.1,38,0.00,,,0.00,WUHU216HW,2013-02-21 20:11:00,
2013-02-21 13:16:00,49.1,25.1,29.89,SW,225,11.6,15.2,39,0.00,,,0.00,WUHU216HW,2013-02-21 20:16:00,
2013-02-21 13:21:00,48.8,24.1,29.89,SW,225,8.9,15.2,38,0.00,,,0.00,WUHU216HW,2013-02-21 20:21:00,
2013-02-21 13:26:00,49.3,24.7,29.89,WSW,248,10.5,14.3,38,0.00,,,0.00,WUHU216HW,2013-02-21 20:26:00,
2013-02-21 13:31:00,49.1,24.5,29.89,SW,225,9.6,14.3,38,0.00,,,0.00,WUHU216HW,2013-02-21 20:31:00,
2013-02-21 13:36:00,49.3,24.7,29.88,SSW,203,8.9,14.3,38,0.00,,,0.00,WUHU216HW,2013-02-21 20:36:00,
2013-02-21 13:41:00,49.7,24.9,29.88,West,270,9.2,15.0,38,0.00,,,0.00,WUHU216HW,2013-02-21 20:41:00,
2013-02-21 13:46:00,50.2,25.5,29.88,WSW,248,12.5,15.0,38,0.00,,,0.00,WUHU216HW,2013-02-21 20:46:00,
2013-02-21 13:51:00,50.0,24.6,29.87,WSW,248,11.4,16.1,37,0.00,,,0.00,WUHU216HW,2013-02-21 20:51:00,
2013-02-21 13:56:00,50.0,24.6,29.87,SW,225,12.8,16.1,37,0.00,,,0.00,WUHU216HW,2013-02-21 20:56:00,
2013-02-21 14:01:00,50.2,24.8,29.87,SW,225,9.6,17.0,37,0.00,,,0.00,WUHU216HW,2013-02-21 21:01:00,
2013-02-21 14:06:00,50.0,24.0,29.87,WSW,248,15.9,17.9,36,0.00,,,0.00,WUHU216HW,2013-02-21 21:06:00,
2013-02-21 14:11:00,50.0,24.6,29.86,WSW,248,4.7,17.9,37,0.00,,,0.00,WUHU216HW,2013-02-21 21:11:00,
2013-02-21 14:16:00,50.4,24.2,29.86,West,270,10.3,18.3,36,0.00,,,0.00,WUHU216HW,2013-02-21 21:16:00,
2013-02-21 14:21:00,50.6,24.4,29.86,SSW,203,11.2,18.3,36,0.00,,,0.00,WUHU216HW,2013-02-21 21:21:00,
2013-02-21 14:26:00,50.8,23.2,29.85,SW,225,11.4,14.3,34,0.00,,,0.00,WUHU216HW,2013-02-21 21:26:00,
2013-02-21 14:31:00,50.8,23.2,29.85,SW,225,9.6,17.9,34,0.00,,,0.00,WUHU216HW,2013-02-21 21:31:00,
2013-02-21 14:36:00,50.8,23.2,29.85,SW,225,9.2,17.9,34,0.00,,,0.00,WUHU216HW,2013-02-21 21:36:00,
2013-02-21 14:41:00,50.6,23.1,29.85,SW,225,8.7,17.2,34,0.00,,,0.00,WUHU216HW,2013-02-21 21:41:00,
2013-02-21 14:46:00,50.8,23.9,29.85,SSW,203,9.8,17.2,35,0.00,,,0.00,WUHU216HW,2013-02-21 21:46:00,
2013-02-21 14:51:00,50.9,23.3,29.85,WSW,248,8.5,12.8,34,0.00,,,0.00,WUHU216HW,2013-02-21 21:51:00,
2013-02-21 14:56:00,50.9,23.3,29.85,WNW,293,7.6,12.5,34,0.00,,,0.00,WUHU216HW,2013-02-21 21:56:00,
2013-02-21 15:01:00,50.8,24.6,29.85,West,270,6.3,12.5,36,0.00,,,0.00,WUHU216HW,2013-02-21 22:01:00,
2013-02-21 15:06:00,50.8,24.6,29.84,SW,225,14.3,14.3,36,0.00,,,0.00,WUHU216HW,2013-02-21 22:06:00,
2013-02-21 15:11:00,51.3,23.7,29.84,WNW,293,8.3,14.3,34,0.00,,,0.00,WUHU216HW,2013-02-21 22:11:00,
2013-02-21 15:16:00,51.3,23.7,29.84,SSW,203,6.3,14.3,34,0.00,,,0.00,WUHU216HW,2013-02-21 22:16:00,
2013-02-21 15:21:00,51.3,23.0,29.85,West,270,9.2,12.5,33,0.00,,,0.00,WUHU216HW,2013-02-21 22:21:00,
2013-02-21 15:26:00,51.5,23.9,29.84,WSW,248,13.0,13.2,34,0.00,,,0.00,WUHU216HW,2013-02-21 22:26:00,
2013-02-21 15:31:00,51.5,23.9,29.84,SW,225,10.5,14.1,34,0.00,,,0.00,WUHU216HW,2013-02-21 22:31:00,
2013-02-21 15:36:00,51.5,23.9,29.84,WSW,248,9.4,15.0,34,0.00,,,0.00,WUHU216HW,2013-02-21 22:36:00,
2013-02-21 15:41:00,51.7,24.0,29.84,WSW,248,4.9,15.0,34,0.00,,,0.00,WUHU216HW,2013-02-21 22:41:00,
2013-02-21 15:46:00,51.7,24.0,29.84,WSW,248,7.6,11.4,34,0.00,,,0.00,WUHU216HW,2013-02-21 22:46:00,
2013-02-21 15:51:00,51.5,23.9,29.85,WSW,248,5.8,11.4,34,0.00,,,0.00,WUHU216HW,2013-02-21 22:51:00,
2013-02-21 15:56:00,51.3,23.7,29.85,WSW,248,5.8,11.4,34,0.00,,,0.00,WUHU216HW,2013-02-21 22:56:00,
2013-02-21 16:01:00,51.5,23.9,29.85,WSW,248,3.6,13.4,34,0.00,,,0.00,WUHU216HW,2013-02-21 23:01:00,
2013-02-21 16:06:00,51.5,23.9,29.85,West,270,8.3,13.4,34,0.00,,,0.00,WUHU216HW,2013-02-21 23:06:00,
2013-02-21 16:11:00,51.5,23.9,29.85,West,270,7.6,13.2,34,0.00,,,0.00,WUHU216HW,2013-02-21 23:11:00,
2013-02-21 16:16:00,51.5,23.1,29.85,WSW,248,13.0,15.4,33,0.00,,,0.00,WUHU216HW,2013-02-21 23:16:00,
2013-02-21 16:21:00,50.9,23.3,29.85,WSW,248,14.3,15.7,34,0.00,,,0.00,WUHU216HW,2013-02-21 23:21:00,
2013-02-21 16:26:00,50.9,23.3,29.85,SW,225,9.4,15.7,34,0.00,,,0.00,WUHU216HW,2013-02-21 23:26:00,
2013-02-21 16:31:00,50.9,22.7,29.85,SW,225,13.2,15.4,33,0.00,,,0.00,WUHU216HW,2013-02-21 23:31:00,
2013-02-21 16:36:00,50.8,23.2,29.85,SW,225,8.5,15.4,34,0.00,,,0.00,WUHU216HW,2013-02-21 23:36:00,
2013-02-21 16:41:00,50.8,23.2,29.85,SSW,203,10.5,14.5,34,0.00,,,0.00,WUHU216HW,2013-02-21 23:41:00,
2013-02-21 16:46:00,50.4,22.9,29.85,WSW,248,6.9,13.0,34,0.00,,,0.00,WUHU216HW,2013-02-21 23:46:00,
2013-02-21 16:51:00,50.2,23.4,29.85,WSW,248,5.8,13.0,35,0.00,,,0.00,WUHU216HW,2013-02-21 23:51:00,
2013-02-21 16:56:00,50.0,24.0,29.85,North,0,4.0,13.4,36,0.00,,,0.00,WUHU216HW,2013-02-21 23:56:00,
2013-02-21 17:01:00,49.9,23.8,29.86,SSW,203,9.2,13.4,36,0.00,,,0.00,WUHU216HW,2013-02-22 00:01:00,
2013-02-21 17:06:00,49.7,23.6,29.86,SW,225,11.0,12.1,36,0.00,,,0.00,WUHU216HW,2013-02-22 00:06:00,
2013-02-21 17:11:00,49.5,24.1,29.86,WSW,248,5.1,11.9,37,0.00,,,0.00,WUHU216HW,2013-02-22 00:11:00,
2013-02-21 17:16:00,49.3,24.7,29.86,WSW,248,6.9,11.9,38,0.00,,,0.00,WUHU216HW,2013-02-22 00:16:00,
2013-02-21 17:21:00,49.1,24.5,29.86,NNW,338,3.6,9.8,38,0.00,,,0.00,WUHU216HW,2013-02-22 00:21:00,
2013-02-21 17:26:00,48.6,24.0,29.86,WSW,248,6.9,13.6,38,0.00,,,0.00,WUHU216HW,2013-02-22 00:26:00,
2013-02-21 17:31:00,48.2,23.7,29.87,WSW,248,6.9,13.6,38,0.00,,,0.00,WUHU216HW,2013-02-22 00:31:00,
2013-02-21 17:36:00,48.1,24.2,29.87,NW,315,4.0,9.6,39,0.00,,,0.00,WUHU216HW,2013-02-22 00:36:00,
2013-02-21 17:41:00,47.7,24.6,29.87,WNW,293,5.8,10.3,40,0.00,,,0.00,WUHU216HW,2013-02-22 00:41:00,
2013-02-21 17:46:00,47.3,24.2,29.87,WNW,293,6.5,10.3,40,0.00,,,0.00,WUHU216HW,2013-02-22 00:46:00,
2013-02-21 17:51:00,47.2,25.1,29.87,WSW,248,11.0,11.0,42,0.00,,,0.00,WUHU216HW,2013-02-22 00:51:00,
2013-02-21 17:56:00,46.6,25.2,29.87,SW,225,6.3,11.0,43,0.00,,,0.00,WUHU216HW,2013-02-22 00:56:00,
2013-02-21 18:01:00,46.3,24.8,29.87,West,270,5.6,11.0,43,0.00,,,0.00,WUHU216HW,2013-02-22 01:01:00,
2013-02-21 18:06:00,46.1,25.2,29.87,WSW,248,7.6,9.6,44,0.00,,,0.00,WUHU216HW,2013-02-22 01:06:00,
2013-02-21 18:11:00,45.7,24.9,29.88,WSW,248,3.8,9.6,44,0.00,,,0.00,WUHU216HW,2013-02-22 01:11:00,
2013-02-21 18:16:00,45.5,24.8,29.88,WSW,248,4.0,8.7,44,0.00,,,0.00,WUHU216HW,2013-02-22 01:16:00,
2013-02-21 18:21:00,45.2,24.9,29.89,WNW,293,4.0,5.8,45,0.00,,,0.00,WUHU216HW,2013-02-22 01:21:00,
2013-02-21 18:26:00,45.0,24.9,29.89,WNW,293,4.7,6.9,45,0.00,,,0.00,WUHU216HW,2013-02-22 01:26:00,
2013-02-21 18:31:00,44.8,24.7,29.89,WNW,293,3.6,6.9,45,0.00,,,0.00,WUHU216HW,2013-02-22 01:31:00,
2013-02-21 18:36:00,44.6,25.0,29.89,WSW,248,3.6,4.7,46,0.00,,,0.00,WUHU216HW,2013-02-22 01:36:00,
2013-02-21 18:41:00,44.5,24.8,29.90,WNW,293,1.8,4.7,46,0.00,,,0.00,WUHU216HW,2013-02-22 01:41:00,
2013-02-21 18:46:00,44.3,24.7,29.90,WNW,293,1.1,3.8,46,0.00,,,0.00,WUHU216HW,2013-02-22 01:46:00,
2013-02-21 18:51:00,43.9,24.4,29.90,West,270,2.5,2.7,46,0.00,,,0.00,WUHU216HW,2013-02-22 01:51:00,
2013-02-21 18:56:00,43.6,24.0,29.90,WNW,293,1.6,3.4,46,0.00,,,0.00,WUHU216HW,2013-02-22 01:56:00,
2013-02-21 19:01:00,43.6,24.6,29.90,WNW,293,2.5,6.3,47,0.00,,,0.00,WUHU216HW,2013-02-22 02:01:00,
2013-02-21 19:06:00,43.4,24.4,29.90,West,270,6.5,9.2,47,0.00,,,0.00,WUHU216HW,2013-02-22 02:06:00,
2013-02-21 19:11:00,43.2,24.3,29.90,WSW,248,15.0,15.0,47,0.00,,,0.00,WUHU216HW,2013-02-22 02:11:00,
2013-02-21 19:16:00,43.2,24.3,29.90,WNW,293,5.4,15.0,47,0.00,,,0.00,WUHU216HW,2013-02-22 02:16:00,
2013-02-21 19:21:00,42.8,23.9,29.90,WNW,293,6.9,15.0,47,0.00,,,0.00,WUHU216HW,2013-02-22 02:21:00,
2013-02-21 19:26:00,42.8,23.9,29.89,West,270,4.0,9.2,47,0.00,,,0.00,WUHU216HW,2013-02-22 02:26:00,
2013-02-21 19:31:00,42.7,23.8,29.90,West,270,2.9,8.9,47,0.00,,,0.00,WUHU216HW,2013-02-22 02:31:00,
2013-02-21 19:36:00,42.3,23.4,29.90,NW,315,2.2,6.3,47,0.00,,,0.00,WUHU216HW,2013-02-22 02:36:00,
2013-02-21 19:41:00,42.1,23.8,29.90,WNW,293,3.6,6.5,48,0.00,,,0.00,WUHU216HW,2013-02-22 02:41:00,
2013-02-21 19:46:00,41.9,23.6,29.90,NW,315,3.4,6.7,48,0.00,,,0.00,WUHU216HW,2013-02-22 02:46:00,
2013-02-21 19:51:00,41.8,23.4,29.90,WNW,293,1.1,6.7,48,0.00,,,0.00,WUHU216HW,2013-02-22 02:51:00,
2013-02-21 19:56:00,41.6,23.2,29.90,NNW,338,2.7,4.7,48,0.00,,,0.00,WUHU216HW,2013-02-22 02:56:00,
2013-02-21 20:01:00,41.4,23.0,29.90,NW,315,1.8,4.7,48,0.00,,,0.00,WUHU216HW,2013-02-22 03:01:00,
2013-02-21 20:06:00,41.4,23.6,29.90,NNW,338,0.7,3.6,49,0.00,,,0.00,WUHU216HW,2013-02-22 03:06:00,
2013-02-21 20:11:00,41.2,23.4,29.90,ENE,68,0.4,2.5,49,0.00,,,0.00,WUHU216HW,2013-02-22 03:11:00,
2013-02-21 20:16:00,40.9,23.0,29.90,East,90,0.9,2.0,49,0.00,,,0.00,WUHU216HW,2013-02-22 03:16:00,
2013-02-21 20:21:00,40.7,23.0,29.91,ESE,113,1.1,2.0,49,0.00,,,0.00,WUHU216HW,2013-02-22 03:21:00,
2013-02-21 20:26:00,40.5,22.8,29.91,SE,135,2.5,3.1,49,0.00,,,0.00,WUHU216HW,2013-02-22 03:26:00,
2013-02-21 20:31:00,40.1,22.4,29.91,SE,135,1.6,3.6,49,0.00,,,0.00,WUHU216HW,2013-02-22 03:31:00,
2013-02-21 20:36:00,40.0,22.2,29.91,SW,225,0.4,3.6,49,0.00,,,0.00,WUHU216HW,2013-02-22 03:36:00,
2013-02-21 20:41:00,39.8,22.2,29.92,NNW,338,0.4,2.9,49,0.00,,,0.00,WUHU216HW,2013-02-22 03:41:00,
2013-02-21 20:46:00,39.6,22.0,29.92,West,270,1.3,2.5,49,0.00,,,0.00,WUHU216HW,2013-02-22 03:46:00,
2013-02-21 20:51:00,39.6,22.5,29.92,WSW,248,1.3,2.7,50,0.00,,,0.00,WUHU216HW,2013-02-22 03:51:00,
2013-02-21 20:56:00,39.4,22.3,29.92,WSW,248,2.5,2.7,50,0.00,,,0.00,WUHU216HW,2013-02-22 03:56:00,
2013-02-21 21:01:00,39.2,22.1,29.92,West,270,1.6,2.7,50,0.00,,,0.00,WUHU216HW,2013-02-22 04:01:00,
2013-02-21 21:06:00,39.1,22.0,29.92,SW,225,0.4,2.7,50,0.00,,,0.00,WUHU216HW,2013-02-22 04:06:00,
2013-02-21 21:11:00,38.9,21.8,29.92,SE,135,0.0,2.0,50,0.00,,,0.00,WUHU216HW,2013-02-22 04:11:00,
2013-02-21 21:16:00,38.5,22.0,29.92,ESE,113,1.1,1.6,51,0.00,,,0.00,WUHU216HW,2013-02-22 04:16:00,
2013-02-21 21:21:00,38.3,21.8,29.92,SE,135,0.9,2.5,51,0.00,,,0.00,WUHU216HW,2013-02-22 04:21:00,
2013-02-21 21:26:00,38.2,21.6,29.92,SE,135,1.3,2.5,51,0.00,,,0.00,WUHU216HW,2013-02-22 04:26:00,
2013-02-21 21:31:00,38.0,21.4,29.92,SE,135,0.2,2.2,51,0.00,,,0.00,WUHU216HW,2013-02-22 04:31:00,
2013-02-21 21:36:00,37.8,21.2,29.92,West,270,2.9,2.9,51,0.00,,,0.00,WUHU216HW,2013-02-22 04:36:00,
2013-02-21 21:41:00,37.8,21.7,29.92,West,270,2.0,3.4,52,0.00,,,0.00,WUHU216HW,2013-02-22 04:41:00,
2013-02-21 21:46:00,38.0,22.3,29.91,West,270,2.2,5.8,53,0.00,,,0.00,WUHU216HW,2013-02-22 04:46:00,
2013-02-21 21:51:00,38.2,22.5,29.92,WSW,248,0.9,5.8,53,0.00,,,0.00,WUHU216HW,2013-02-22 04:51:00,
2013-02-21 21:56:00,37.8,22.1,29.92,WSW,248,1.6,4.7,53,0.00,,,0.00,WUHU216HW,2013-02-22 04:56:00,
2013-02-21 22:00:00,37.8,22.1,29.92,SW,225,0.9,3.4,53,0.00,,,0.00,WUHU216HW,2013-02-22 05:00:00,
2013-02-21 22:05:00,37.4,21.8,29.93,West,270,1.8,3.4,53,0.00,,,0.00,WUHU216HW,2013-02-22 05:05:00,
2013-02-21 22:10:00,37.4,21.8,29.92,NW,315,0.4,4.3,53,0.00,,,0.00,WUHU216HW,2013-02-22 05:10:00,
2013-02-21 22:15:00,37.4,21.8,29.92,West,270,0.9,4.3,53,0.00,,,0.00,WUHU216HW,2013-02-22 05:15:00,
2013-02-21 22:20:00,37.3,21.7,29.93,NW,315,0.4,1.6,53,0.00,,,0.00,WUHU216HW,2013-02-22 05:20:00,
2013-02-21 22:25:00,37.1,21.5,29.92,West,270,0.9,1.6,53,0.00,,,0.00,WUHU216HW,2013-02-22 05:25:00,
2013-02-21 22:30:00,36.7,21.2,29.92,West,270,0.0,1.1,53,0.00,,,0.00,WUHU216HW,2013-02-22 05:30:00,
2013-02-21 22:35:00,36.5,21.4,29.92,NW,315,0.0,1.1,54,0.00,,,0.00,WUHU216HW,2013-02-22 05:35:00,
2013-02-21 22:40:00,36.4,21.2,29.92,North,0,0.0,0.4,54,0.00,,,0.00,WUHU216HW,2013-02-22 05:40:00,
2013-02-21 22:45:00,36.2,21.2,29.92,ESE,113,0.4,0.7,54,0.00,,,0.00,WUHU216HW,2013-02-22 05:45:00,
2013-02-21 22:50:00,36.0,21.0,29.92,WNW,293,0.2,0.7,54,0.00,,,0.00,WUHU216HW,2013-02-22 05:50:00,
2013-02-21 22:55:00,35.6,21.1,29.92,West,270,1.1,1.1,55,0.00,,,0.00,WUHU216HW,2013-02-22 05:55:00,
2013-02-21 23:00:00,35.5,20.9,29.92,West,270,1.1,1.8,55,0.00,,,0.00,WUHU216HW,2013-02-22 06:00:00,
2013-02-21 23:05:00,35.3,21.2,29.92,SW,225,0.9,1.8,56,0.00,,,0.00,WUHU216HW,2013-02-22 06:05:00,
2013-02-21 23:10:00,35.1,21.0,29.92,SSW,203,1.1,1.6,56,0.00,,,0.00,WUHU216HW,2013-02-22 06:10:00,
2013-02-21 23:15:00,34.9,20.8,29.93,SW,225,1.1,1.1,56,0.00,,,0.00,WUHU216HW,2013-02-22 06:15:00,
2013-02-21 23:20:00,34.9,20.8,29.92,SW,225,0.7,1.1,56,0.00,,,0.00,WUHU216HW,2013-02-22 06:20:00,
2013-02-21 23:25:00,34.7,20.6,29.92,WSW,248,1.8,2.0,56,0.00,,,0.00,WUHU216HW,2013-02-22 06:25:00,
2013-02-21 23:30:00,34.6,20.4,29.92,SW,225,0.9,2.0,56,0.00,,,0.00,WUHU216HW,2013-02-22 06:30:00,
2013-02-21 23:35:00,34.4,20.3,29.92,WSW,248,1.1,1.8,56,0.00,,,0.00,WUHU216HW,2013-02-22 06:35:00,
2013-02-21 23:40:00,34.2,20.1,29.92,SW,225,1.1,1.3,56,0.00,,,0.00,WUHU216HW,2013-02-22 06:40:00,
2013-02-21 23:45:00,34.0,20.4,29.92,SW,225,0.9,1.3,57,0.00,,,0.00,WUHU216HW,2013-02-22 06:45:00,
2013-02-21 23:50:00,34.0,20.7,29.92,SW,225,0.9,1.8,58,0.00,,,0.00,WUHU216HW,2013-02-22 06:50:00,
2013-02-21 23:55:00,33.8,20.5,29.92,South,180,0.7,1.8,58,0.00,,,0.00,WUHU216HW,2013-02-22 06:55:00,